Tracking 19281 objects as of 16-Nov-2018
HD Live streaming from Space Station
objects crossing your sky now

COSMOS 1720

Track COSMOS 1720 now!
10-day predictions
COSMOS 1720 is classified as:


NORAD ID: 16453
Int'l Code: 1986-002E
Perigee: 1,447.9 km
Apogee: 1,490.5 km
Inclination: 74.0 °
Period: 115.1 minutes
Semi major axis: 7840 km
RCS: 0.701 m2 (medium)
Launch date: January 9, 1986
Source: Commonwealth of Independent States (former USSR) (CIS)
Launch site: PLESETSK MISSILE AND SPACE COMPLEX (PKMTR)
aabbcc
Your satellite tracking list
Your tracking list is empty




NASA's NSSDC Master Catalog

Two Line Element Set (TLE):
1 16453U 86002E   18320.19010997 -.00000012  00000-0  27948-4 0  9993
2 16453  73.9891 358.0770 0027151 125.9666 290.3011 12.50589773499992
Source of the keplerian elements: AFSPC